Flag for Faroe Islands Weather past 2 weeks in Tórshavn, Faroe Islands, Faroe Islands

Now
48 °F

Partly sunny.


Feels Like: 44 °F
Forecast: 51 / 55 °F
Wind: 9 mph from North

Location: Soervaag / Vagar

Current Time: Aug 2, 2014 at 7:54:31 AM

Latest Report: Aug 2, 2014 at 7:20 AM


Visibility: N/A

Pressure: 29.89 "Hg

Humidity: 87%

Dew point: 45 °F

Location of TórshavnLocation

Historic Weather in Tórshavn — Graph

°F

Tórshavn temperature yesterday

Maximum temperature yesterday: 54 °F (at 12:20 PM)
Minimum temperature yesterday: 46 °F (at 12:20 AM)
Average temperature yesterday: 50 °F

Past Weeks' High & Low Weather Summary

 TemperatureHumidityPressure
High64 °F (Jul 20, 8:50 AM)100% (Jul 20, 1:20 AM)30.30 "Hg (Jul 20, 1:20 AM)
Low46 °F (Aug 1, 12:20 AM)62% (Aug 1, 8:50 AM)29.42 "Hg (Jul 29, 6:50 PM)
Average55 °F92%29.95 "Hg
* Reported Jul 18 6:20 AM — Aug 2 6:20 AM, Tórshavn, Weather by CustomWeather, © 2014

Note: Actual official high and low records may vary slightly from our data, if they occured in-between our weather recording intervals... More about our weather records

Advertising

Tórshavn weather history for previous 24 hours

 ConditionsComfort  
Time TempWeatherWind HumidityBarometerVisibility
6:20 AM
Aug 2
48 °FPassing clouds.12 mph82%29.86 "HgN/A
5:50 AM48 °FPassing clouds.12 mph82%29.86 "HgN/A
5:20 AM48 °FPassing clouds.13 mph82%29.86 "HgN/A
4:50 AM48 °FPassing clouds.13 mph82%29.86 "HgN/A
4:20 AM48 °FPassing clouds.8 mph82%29.86 "HgN/A
3:50 AM48 °FPassing clouds.8 mph82%29.86 "HgN/A
3:20 AM48 °FPassing clouds.9 mph82%29.86 "HgN/A
2:50 AM46 °FPassing clouds.9 mph82%29.86 "HgN/A
2:20 AM46 °FPassing clouds.9 mph82%29.86 "HgN/A
1:50 AM46 °FPassing clouds.9 mph82%29.86 "HgN/A
1:20 AM46 °FPassing clouds.7 mph82%29.86 "HgN/A
12:50 AM48 °FPartly cloudy.8 mph76%29.86 "HgN/A
12:20 AM48 °FPartly cloudy.7 mph76%29.86 "HgN/A
11:50 PM
Aug 1
46 °FPartly sunny.7 mph82%29.86 "HgN/A
11:20 PM46 °FPartly sunny.8 mph82%29.86 "HgN/A
10:50 PM48 °FPartly sunny.7 mph71%29.86 "HgN/A
10:20 PM48 °FPartly sunny.7 mph71%29.86 "HgN/A
9:50 PM48 °FPartly sunny.8 mph76%29.86 "HgN/A
9:20 PM50 °FOvercast.8 mph71%29.86 "HgN/A
8:50 PM50 °FPartly sunny.8 mph71%29.86 "HgN/A
8:20 PM50 °FBroken clouds.12 mph76%29.86 "HgN/A
7:50 PM52 °FPartly sunny.12 mph67%29.83 "HgN/A
7:20 PM52 °FOvercast.13 mph72%29.83 "HgN/A
6:50 PM52 °FPartly sunny.13 mph72%29.83 "HgN/A
6:20 PM52 °FPartly sunny.13 mph72%29.83 "HgN/A
5:50 PM52 °FOvercast.12 mph72%29.83 "HgN/A
5:20 PM52 °FOvercast.10 mph72%29.83 "HgN/A
4:50 PM52 °FSprinkles. Overcast.12 mph77%29.83 "HgN/A
4:20 PM52 °FSprinkles. Overcast.9 mph77%29.83 "HgN/A
3:50 PM52 °FPartly sunny.13 mph77%29.83 "HgN/A
3:20 PM52 °FSprinkles. Overcast.8 mph77%29.83 "HgN/A
2:50 PM52 °FDrizzle. Overcast.13 mph82%29.83 "HgN/A
2:20 PM52 °FPartly sunny.8 mph77%29.83 "HgN/A
1:50 PM54 °FPartly sunny.8 mph72%29.83 "HgN/A
1:20 PM52 °FLight rain. Overcast.12 mph72%29.83 "HgN/A
12:50 PM54 °FPartly sunny.9 mph67%29.80 "HgN/A
12:20 PM54 °FPartly sunny.10 mph67%29.80 "HgN/A
11:50 AM52 °FPartly sunny.10 mph72%29.80 "HgN/A
11:20 AM52 °FPartly sunny.10 mph72%29.80 "HgN/A
10:50 AM52 °FBroken clouds.10 mph72%29.80 "HgN/A
10:20 AM52 °FScattered clouds.9 mph67%29.80 "HgN/A
9:50 AM50 °FPartly sunny.9 mph67%29.80 "HgN/A
9:20 AM50 °FPartly sunny.7 mph67%29.80 "HgN/A
8:50 AM50 °FPassing clouds.9 mph62%29.80 "HgN/A
8:20 AM50 °FScattered clouds.7 mph67%29.80 "HgN/A
7:50 AM48 °FScattered clouds.6 mph76%29.80 "HgN/A
7:20 AM48 °FPassing clouds.7 mph76%29.80 "HgN/A
Weather by CustomWeather, © 2014

See weather overviewHow to use our weather pages